Skip Page Navigation
NASA JPL Caltech
NASA Logo - Jet Propulsion Laboratory + View the NASA Portal
+ Center for Near-Earth Object Studies
JPL Home Earth Solar System Stars & Galaxies Technology
JPL Solar System Dynamics
BODIES ORBITS EPHEMERIDES TOOLS PHYSICAL DATA DISCOVERY FAQ SITE MAP
JPL Small-Body Database Browser
Search: [ help ]  
226564 (2003 WP70)
Classification: Main-belt Asteroid          SPK-ID: 2226564
Ephemeris | Orbit Diagram | Orbital Elements | Mission Design | Physical Parameters | Discovery Circumstances | Close-Approach Data ]

[ show orbit diagram ]
Orbital Elements at Epoch 2459000.5 (2020-May-31.0) TDB
Reference: JPL 14 (heliocentric ecliptic J2000)
 Element Value Uncertainty (1-sigma)   Units 
e .2414357722179547 7.1537e-08  
a 3.164714289558497 6.1077e-08 au
q 2.400639051209745 2.2969e-07 au
i 27.30085357052311 1.1051e-05 deg
node 239.4313450006352 1.4988e-05 deg
peri 54.5252024108083 2.7796e-05 deg
M 59.90794626771869 2.6225e-05 deg
tp 2458658.298333879327
(2019-Jun-23.79833388)
0.00014354 TDB
period 2056.364931171481
5.63
5.953e-05
1.63e-07
d
yr
n .1750662027653396 5.068e-09 deg/d
Q 3.928789527907249 7.5823e-08 au
  Orbit Determination Parameters
   # obs. used (total)      185  
   data-arc span      8502 days (23.28 yr)  
   first obs. used      1992-11-24  
   last obs. used      2016-03-05  
   planetary ephem.      DE431  
   SB-pert. ephem.      SB431-N16  
   condition code      0  
   norm. resid. RMS      .66331  
   source      ORB  
   producer      Otto Matic  
   solution date      2018-Oct-04 08:46:20  

Additional Information
 Earth MOID = 1.47173 au 
 Jupiter MOID = 1.48009 au 
 T_jup = 2.989 
[ show covariance matrix ]

Ephemeris | Orbit Diagram | Orbital Elements | Mission Design | Physical Parameters | Discovery Circumstances | Close-Approach Data ]

Physical Parameter Table
Parameter Symbol Value Units Sigma Reference Notes
absolute magnitude H 15.0   n/a MPO494243  
diameter diameter 5.811 km 0.442 urn:nasa:pds:neowise_diameters_albedos::2.0[mainbelt] (http://adsabs.harvard.edu/abs/2011ApJ...741...68M)  
geometric albedo albedo 0.069   0.021 urn:nasa:pds:neowise_diameters_albedos::2.0[mainbelt] (http://adsabs.harvard.edu/abs/2011ApJ...741...68M)  

226564 (2003 WP70)          Discovered 2003-Nov-20 by LINEAR at Socorro
Reference: 20091202/Numbers.arcLast Updated: 2009-12-04

[ show close-approach data ]
Alternate Designations
 2003 WP70 = 2002 NY7 
Ephemeris | Orbit Diagram | Orbital Elements | Mission Design | Physical Parameters | Discovery Circumstances | Close-Approach Data ]
ABOUT SSD CREDITS/AWARDS PRIVACY/COPYRIGHT GLOSSARY LINKS
FirstGov 2020-Aug-08 01:23 UT
(server date/time)  
NASA Home Page
Site Manager:   Ryan S. Park
Webmaster  Alan B. Chamberlin